<?xml version="1.0" encoding="UTF-8" standalone="no" ?>
<gpx xmlns="http://www.topografix.com/GPX/1/1" xmlns:xsi="http://www.w3.org/2001/XMLSchema-instance" xsi:schemaLocation="http://www.topografix.com/GPX/1/1 http://www.topografix.com/GPX/1/1/gpx.xsd" version="1.1" creator="VisuGPX - https://www.visugpx.com">
  <metadata>
    <name>Stangala la totale départ Kerlic 12Kms</name>
  </metadata>
  <trk>
    <name><![CDATA[Stangala la totale départ Kerlic 12Kms_1]]></name>
    <trkseg>
      <trkpt lat="48.01516" lon="-4.06876">
        <ele>50</ele>
        <time>2020-12-27T23:31:46+01:00</time>
      </trkpt>
      <trkpt lat="48.01513" lon="-4.06861">
        <ele>50</ele>
        <time>2020-12-27T23:31:46+01:00</time>
      </trkpt>
      <trkpt lat="48.01507" lon="-4.06856">
        <ele>50</ele>
        <time>2020-12-27T23:31:46+01:00</time>
      </trkpt>
      <trkpt lat="48.01499" lon="-4.06832">
        <ele>50</ele>
        <time>2020-12-27T23:31:46+01:00</time>
      </trkpt>
      <trkpt lat="48.01493" lon="-4.06806">
        <ele>51</ele>
        <time>2020-12-27T23:31:46+01:00</time>
      </trkpt>
      <trkpt lat="48.01491" lon="-4.0678">
        <ele>52</ele>
        <time>2020-12-27T23:31:46+01:00</time>
      </trkpt>
      <trkpt lat="48.01489" lon="-4.06757">
        <ele>53</ele>
        <time>2020-12-27T23:31:46+01:00</time>
      </trkpt>
      <trkpt lat="48.01487" lon="-4.06745">
        <ele>54</ele>
        <time>2020-12-27T23:31:46+01:00</time>
      </trkpt>
      <trkpt lat="48.01477" lon="-4.06722">
        <ele>52</ele>
        <time>2020-12-27T23:31:46+01:00</time>
      </trkpt>
      <trkpt lat="48.01469" lon="-4.06704">
        <ele>51</ele>
        <time>2020-12-27T23:31:46+01:00</time>
      </trkpt>
      <trkpt lat="48.01463" lon="-4.06668">
        <ele>51</ele>
        <time>2020-12-27T23:31:46+01:00</time>
      </trkpt>
      <trkpt lat="48.01457" lon="-4.06618">
        <ele>49</ele>
        <time>2020-12-27T23:31:46+01:00</time>
      </trkpt>
      <trkpt lat="48.01463" lon="-4.06566">
        <ele>48</ele>
        <time>2020-12-27T23:31:46+01:00</time>
      </trkpt>
      <trkpt lat="48.01473" lon="-4.06488">
        <ele>46</ele>
        <time>2020-12-27T23:31:46+01:00</time>
      </trkpt>
      <trkpt lat="48.01481" lon="-4.06454">
        <ele>46</ele>
        <time>2020-12-27T23:31:46+01:00</time>
      </trkpt>
      <trkpt lat="48.01489" lon="-4.06434">
        <ele>46</ele>
        <time>2020-12-27T23:31:46+01:00</time>
      </trkpt>
      <trkpt lat="48.01494" lon="-4.06412">
        <ele>45</ele>
        <time>2020-12-27T23:31:46+01:00</time>
      </trkpt>
      <trkpt lat="48.01495" lon="-4.06402">
        <ele>43</ele>
        <time>2020-12-27T23:31:46+01:00</time>
      </trkpt>
      <trkpt lat="48.01481" lon="-4.06408">
        <ele>41</ele>
        <time>2020-12-27T23:31:46+01:00</time>
      </trkpt>
      <trkpt lat="48.01475" lon="-4.06408">
        <ele>39</ele>
        <time>2020-12-27T23:31:46+01:00</time>
      </trkpt>
      <trkpt lat="48.0148" lon="-4.06323">
        <ele>31</ele>
        <time>2020-12-27T23:31:46+01:00</time>
      </trkpt>
      <trkpt lat="48.015" lon="-4.06302">
        <ele>31</ele>
        <time>2020-12-27T23:31:46+01:00</time>
      </trkpt>
      <trkpt lat="48.01541" lon="-4.06238">
        <ele>35</ele>
        <time>2020-12-27T23:31:46+01:00</time>
      </trkpt>
      <trkpt lat="48.01581" lon="-4.06185">
        <ele>35</ele>
        <time>2020-12-27T23:31:46+01:00</time>
      </trkpt>
      <trkpt lat="48.01637" lon="-4.0613">
        <ele>39</ele>
        <time>2020-12-27T23:31:46+01:00</time>
      </trkpt>
      <trkpt lat="48.01652" lon="-4.0612">
        <ele>40</ele>
        <time>2020-12-27T23:31:46+01:00</time>
      </trkpt>
      <trkpt lat="48.01672" lon="-4.06112">
        <ele>40</ele>
        <time>2020-12-27T23:31:46+01:00</time>
      </trkpt>
      <trkpt lat="48.01682" lon="-4.06119">
        <ele>41</ele>
        <time>2020-12-27T23:31:46+01:00</time>
      </trkpt>
      <trkpt lat="48.01689" lon="-4.0613">
        <ele>43</ele>
        <time>2020-12-27T23:31:46+01:00</time>
      </trkpt>
      <trkpt lat="48.01701" lon="-4.06125">
        <ele>43</ele>
        <time>2020-12-27T23:31:46+01:00</time>
      </trkpt>
      <trkpt lat="48.0172" lon="-4.06113">
        <ele>41</ele>
        <time>2020-12-27T23:31:46+01:00</time>
      </trkpt>
      <trkpt lat="48.01741" lon="-4.0611">
        <ele>41</ele>
        <time>2020-12-27T23:31:46+01:00</time>
      </trkpt>
      <trkpt lat="48.01793" lon="-4.06097">
        <ele>42</ele>
        <time>2020-12-27T23:31:46+01:00</time>
      </trkpt>
      <trkpt lat="48.01828" lon="-4.06073">
        <ele>40</ele>
        <time>2020-12-27T23:31:46+01:00</time>
      </trkpt>
      <trkpt lat="48.01926" lon="-4.06038">
        <ele>42</ele>
        <time>2020-12-27T23:31:46+01:00</time>
      </trkpt>
      <trkpt lat="48.01963" lon="-4.06033">
        <ele>41</ele>
        <time>2020-12-27T23:31:46+01:00</time>
      </trkpt>
      <trkpt lat="48.02" lon="-4.0603">
        <ele>41</ele>
        <time>2020-12-27T23:31:46+01:00</time>
      </trkpt>
      <trkpt lat="48.02019" lon="-4.06055">
        <ele>44</ele>
        <time>2020-12-27T23:31:46+01:00</time>
      </trkpt>
      <trkpt lat="48.02058" lon="-4.06135">
        <ele>48</ele>
        <time>2020-12-27T23:31:46+01:00</time>
      </trkpt>
      <trkpt lat="48.02087" lon="-4.06208">
        <ele>45</ele>
        <time>2020-12-27T23:31:46+01:00</time>
      </trkpt>
      <trkpt lat="48.0211" lon="-4.06281">
        <ele>52</ele>
        <time>2020-12-27T23:31:46+01:00</time>
      </trkpt>
      <trkpt lat="48.02138" lon="-4.0631">
        <ele>53</ele>
        <time>2020-12-27T23:31:46+01:00</time>
      </trkpt>
      <trkpt lat="48.0219" lon="-4.06326">
        <ele>52</ele>
        <time>2020-12-27T23:31:46+01:00</time>
      </trkpt>
      <trkpt lat="48.02239" lon="-4.06313">
        <ele>53</ele>
        <time>2020-12-27T23:31:46+01:00</time>
      </trkpt>
      <trkpt lat="48.02343" lon="-4.06193">
        <ele>51</ele>
        <time>2020-12-27T23:31:46+01:00</time>
      </trkpt>
      <trkpt lat="48.0239" lon="-4.06132">
        <ele>52</ele>
        <time>2020-12-27T23:31:46+01:00</time>
      </trkpt>
      <trkpt lat="48.0245" lon="-4.06058">
        <ele>55</ele>
        <time>2020-12-27T23:31:46+01:00</time>
      </trkpt>
      <trkpt lat="48.02469" lon="-4.06036">
        <ele>57</ele>
        <time>2020-12-27T23:31:46+01:00</time>
      </trkpt>
      <trkpt lat="48.02488" lon="-4.05997">
        <ele>55</ele>
        <time>2020-12-27T23:31:46+01:00</time>
      </trkpt>
      <trkpt lat="48.02506" lon="-4.05967">
        <ele>56</ele>
        <time>2020-12-27T23:31:46+01:00</time>
      </trkpt>
      <trkpt lat="48.02534" lon="-4.05942">
        <ele>61</ele>
        <time>2020-12-27T23:31:46+01:00</time>
      </trkpt>
      <trkpt lat="48.02556" lon="-4.05894">
        <ele>59</ele>
        <time>2020-12-27T23:31:46+01:00</time>
      </trkpt>
      <trkpt lat="48.02588" lon="-4.05869">
        <ele>60</ele>
        <time>2020-12-27T23:31:46+01:00</time>
      </trkpt>
      <trkpt lat="48.02611" lon="-4.05832">
        <ele>59</ele>
        <time>2020-12-27T23:31:46+01:00</time>
      </trkpt>
      <trkpt lat="48.02621" lon="-4.05802">
        <ele>60</ele>
        <time>2020-12-27T23:31:46+01:00</time>
      </trkpt>
      <trkpt lat="48.02628" lon="-4.05756">
        <ele>57</ele>
        <time>2020-12-27T23:31:46+01:00</time>
      </trkpt>
      <trkpt lat="48.0264" lon="-4.05711">
        <ele>58</ele>
        <time>2020-12-27T23:31:46+01:00</time>
      </trkpt>
      <trkpt lat="48.02649" lon="-4.05658">
        <ele>58</ele>
        <time>2020-12-27T23:31:46+01:00</time>
      </trkpt>
      <trkpt lat="48.02655" lon="-4.05616">
        <ele>57</ele>
        <time>2020-12-27T23:31:46+01:00</time>
      </trkpt>
      <trkpt lat="48.02666" lon="-4.0556">
        <ele>56</ele>
        <time>2020-12-27T23:31:46+01:00</time>
      </trkpt>
      <trkpt lat="48.02675" lon="-4.05529">
        <ele>55</ele>
        <time>2020-12-27T23:31:46+01:00</time>
      </trkpt>
      <trkpt lat="48.02693" lon="-4.05505">
        <ele>55</ele>
        <time>2020-12-27T23:31:46+01:00</time>
      </trkpt>
      <trkpt lat="48.02718" lon="-4.0549">
        <ele>55</ele>
        <time>2020-12-27T23:31:46+01:00</time>
      </trkpt>
      <trkpt lat="48.02731" lon="-4.05474">
        <ele>57</ele>
        <time>2020-12-27T23:31:46+01:00</time>
      </trkpt>
      <trkpt lat="48.02725" lon="-4.05449">
        <ele>58</ele>
        <time>2020-12-27T23:31:46+01:00</time>
      </trkpt>
      <trkpt lat="48.02713" lon="-4.05431">
        <ele>59</ele>
        <time>2020-12-27T23:31:46+01:00</time>
      </trkpt>
      <trkpt lat="48.02709" lon="-4.05409">
        <ele>62</ele>
        <time>2020-12-27T23:31:46+01:00</time>
      </trkpt>
      <trkpt lat="48.02729" lon="-4.05393">
        <ele>66</ele>
        <time>2020-12-27T23:31:46+01:00</time>
      </trkpt>
      <trkpt lat="48.0271" lon="-4.0537">
        <ele>71</ele>
        <time>2020-12-27T23:31:46+01:00</time>
      </trkpt>
      <trkpt lat="48.02694" lon="-4.05356">
        <ele>74</ele>
        <time>2020-12-27T23:31:46+01:00</time>
      </trkpt>
      <trkpt lat="48.02674" lon="-4.05331">
        <ele>78</ele>
        <time>2020-12-27T23:31:46+01:00</time>
      </trkpt>
      <trkpt lat="48.02691" lon="-4.05329">
        <ele>79</ele>
        <time>2020-12-27T23:31:46+01:00</time>
      </trkpt>
      <trkpt lat="48.02703" lon="-4.05327">
        <ele>81</ele>
        <time>2020-12-27T23:31:46+01:00</time>
      </trkpt>
      <trkpt lat="48.02723" lon="-4.05314">
        <ele>85</ele>
        <time>2020-12-27T23:31:46+01:00</time>
      </trkpt>
      <trkpt lat="48.02705" lon="-4.05299">
        <ele>87</ele>
        <time>2020-12-27T23:31:46+01:00</time>
      </trkpt>
      <trkpt lat="48.0274" lon="-4.05279">
        <ele>94</ele>
        <time>2020-12-27T23:31:46+01:00</time>
      </trkpt>
      <trkpt lat="48.02773" lon="-4.05278">
        <ele>99</ele>
        <time>2020-12-27T23:31:46+01:00</time>
      </trkpt>
      <trkpt lat="48.02813" lon="-4.05309">
        <ele>100</ele>
        <time>2020-12-27T23:31:46+01:00</time>
      </trkpt>
      <trkpt lat="48.02831" lon="-4.05316">
        <ele>102</ele>
        <time>2020-12-27T23:31:46+01:00</time>
      </trkpt>
      <trkpt lat="48.02838" lon="-4.05329">
        <ele>102</ele>
        <time>2020-12-27T23:31:46+01:00</time>
      </trkpt>
      <trkpt lat="48.02851" lon="-4.05338">
        <ele>102</ele>
        <time>2020-12-27T23:31:46+01:00</time>
      </trkpt>
      <trkpt lat="48.02864" lon="-4.05349">
        <ele>100</ele>
        <time>2020-12-27T23:31:46+01:00</time>
      </trkpt>
      <trkpt lat="48.02872" lon="-4.05348">
        <ele>102</ele>
        <time>2020-12-27T23:31:46+01:00</time>
      </trkpt>
      <trkpt lat="48.02884" lon="-4.05364">
        <ele>98</ele>
        <time>2020-12-27T23:31:46+01:00</time>
      </trkpt>
      <trkpt lat="48.02906" lon="-4.05361">
        <ele>103</ele>
        <time>2020-12-27T23:31:46+01:00</time>
      </trkpt>
      <trkpt lat="48.02943" lon="-4.05356">
        <ele>110</ele>
        <time>2020-12-27T23:31:46+01:00</time>
      </trkpt>
      <trkpt lat="48.02976" lon="-4.05356">
        <ele>114</ele>
        <time>2020-12-27T23:31:46+01:00</time>
      </trkpt>
      <trkpt lat="48.02996" lon="-4.05356">
        <ele>116</ele>
        <time>2020-12-27T23:31:46+01:00</time>
      </trkpt>
      <trkpt lat="48.03012" lon="-4.0535">
        <ele>118</ele>
        <time>2020-12-27T23:31:46+01:00</time>
      </trkpt>
      <trkpt lat="48.03022" lon="-4.05329">
        <ele>122</ele>
        <time>2020-12-27T23:31:46+01:00</time>
      </trkpt>
      <trkpt lat="48.03054" lon="-4.05369">
        <ele>115</ele>
        <time>2020-12-27T23:31:46+01:00</time>
      </trkpt>
      <trkpt lat="48.03058" lon="-4.05403">
        <ele>111</ele>
        <time>2020-12-27T23:31:46+01:00</time>
      </trkpt>
      <trkpt lat="48.03066" lon="-4.05415">
        <ele>110</ele>
        <time>2020-12-27T23:31:46+01:00</time>
      </trkpt>
      <trkpt lat="48.03076" lon="-4.05442">
        <ele>106</ele>
        <time>2020-12-27T23:31:46+01:00</time>
      </trkpt>
      <trkpt lat="48.03091" lon="-4.05483">
        <ele>97</ele>
        <time>2020-12-27T23:31:46+01:00</time>
      </trkpt>
      <trkpt lat="48.03066" lon="-4.05414">
        <ele>111</ele>
        <time>2020-12-27T23:31:46+01:00</time>
      </trkpt>
      <trkpt lat="48.03084" lon="-4.05428">
        <ele>110</ele>
        <time>2020-12-27T23:31:46+01:00</time>
      </trkpt>
      <trkpt lat="48.0311" lon="-4.05442">
        <ele>101</ele>
        <time>2020-12-27T23:31:46+01:00</time>
      </trkpt>
      <trkpt lat="48.03133" lon="-4.05451">
        <ele>95</ele>
        <time>2020-12-27T23:31:46+01:00</time>
      </trkpt>
      <trkpt lat="48.0316" lon="-4.05465">
        <ele>89</ele>
        <time>2020-12-27T23:31:46+01:00</time>
      </trkpt>
      <trkpt lat="48.03177" lon="-4.05494">
        <ele>86</ele>
        <time>2020-12-27T23:31:46+01:00</time>
      </trkpt>
      <trkpt lat="48.03196" lon="-4.05532">
        <ele>81</ele>
        <time>2020-12-27T23:31:46+01:00</time>
      </trkpt>
      <trkpt lat="48.03191" lon="-4.05498">
        <ele>82</ele>
        <time>2020-12-27T23:31:46+01:00</time>
      </trkpt>
      <trkpt lat="48.03168" lon="-4.05419">
        <ele>86</ele>
        <time>2020-12-27T23:31:46+01:00</time>
      </trkpt>
      <trkpt lat="48.03151" lon="-4.05351">
        <ele>89</ele>
        <time>2020-12-27T23:31:46+01:00</time>
      </trkpt>
      <trkpt lat="48.03129" lon="-4.05233">
        <ele>95</ele>
        <time>2020-12-27T23:31:46+01:00</time>
      </trkpt>
      <trkpt lat="48.0312" lon="-4.0516">
        <ele>100</ele>
        <time>2020-12-27T23:31:46+01:00</time>
      </trkpt>
      <trkpt lat="48.03123" lon="-4.05107">
        <ele>101</ele>
        <time>2020-12-27T23:31:46+01:00</time>
      </trkpt>
      <trkpt lat="48.03124" lon="-4.05047">
        <ele>103</ele>
        <time>2020-12-27T23:31:46+01:00</time>
      </trkpt>
      <trkpt lat="48.03131" lon="-4.04989">
        <ele>101</ele>
        <time>2020-12-27T23:31:46+01:00</time>
      </trkpt>
      <trkpt lat="48.03145" lon="-4.04935">
        <ele>97</ele>
        <time>2020-12-27T23:31:46+01:00</time>
      </trkpt>
      <trkpt lat="48.03153" lon="-4.0487">
        <ele>94</ele>
        <time>2020-12-27T23:31:46+01:00</time>
      </trkpt>
      <trkpt lat="48.03169" lon="-4.04892">
        <ele>89</ele>
        <time>2020-12-27T23:31:46+01:00</time>
      </trkpt>
      <trkpt lat="48.03184" lon="-4.04912">
        <ele>85</ele>
        <time>2020-12-27T23:31:46+01:00</time>
      </trkpt>
      <trkpt lat="48.03198" lon="-4.04941">
        <ele>80</ele>
        <time>2020-12-27T23:31:46+01:00</time>
      </trkpt>
      <trkpt lat="48.03212" lon="-4.04916">
        <ele>78</ele>
        <time>2020-12-27T23:31:46+01:00</time>
      </trkpt>
      <trkpt lat="48.03204" lon="-4.04992">
        <ele>75</ele>
        <time>2020-12-27T23:31:46+01:00</time>
      </trkpt>
      <trkpt lat="48.03215" lon="-4.05041">
        <ele>70</ele>
        <time>2020-12-27T23:31:46+01:00</time>
      </trkpt>
      <trkpt lat="48.03216" lon="-4.0508">
        <ele>67</ele>
        <time>2020-12-27T23:31:46+01:00</time>
      </trkpt>
      <trkpt lat="48.03225" lon="-4.05119">
        <ele>63</ele>
        <time>2020-12-27T23:31:46+01:00</time>
      </trkpt>
      <trkpt lat="48.03248" lon="-4.05214">
        <ele>54</ele>
        <time>2020-12-27T23:31:46+01:00</time>
      </trkpt>
      <trkpt lat="48.03243" lon="-4.05296">
        <ele>55</ele>
        <time>2020-12-27T23:31:46+01:00</time>
      </trkpt>
      <trkpt lat="48.03233" lon="-4.05364">
        <ele>61</ele>
        <time>2020-12-27T23:31:46+01:00</time>
      </trkpt>
      <trkpt lat="48.03248" lon="-4.0543">
        <ele>61</ele>
        <time>2020-12-27T23:31:46+01:00</time>
      </trkpt>
      <trkpt lat="48.03275" lon="-4.05477">
        <ele>60</ele>
        <time>2020-12-27T23:31:46+01:00</time>
      </trkpt>
      <trkpt lat="48.03309" lon="-4.05583">
        <ele>59</ele>
        <time>2020-12-27T23:31:46+01:00</time>
      </trkpt>
      <trkpt lat="48.03343" lon="-4.05676">
        <ele>60</ele>
        <time>2020-12-27T23:31:46+01:00</time>
      </trkpt>
      <trkpt lat="48.0338" lon="-4.05736">
        <ele>58</ele>
        <time>2020-12-27T23:31:46+01:00</time>
      </trkpt>
      <trkpt lat="48.03396" lon="-4.05773">
        <ele>57</ele>
        <time>2020-12-27T23:31:46+01:00</time>
      </trkpt>
      <trkpt lat="48.03424" lon="-4.05806">
        <ele>57</ele>
        <time>2020-12-27T23:31:46+01:00</time>
      </trkpt>
      <trkpt lat="48.03451" lon="-4.05838">
        <ele>58</ele>
        <time>2020-12-27T23:31:46+01:00</time>
      </trkpt>
      <trkpt lat="48.03439" lon="-4.05957">
        <ele>59</ele>
        <time>2020-12-27T23:31:46+01:00</time>
      </trkpt>
      <trkpt lat="48.03445" lon="-4.06076">
        <ele>58</ele>
        <time>2020-12-27T23:31:46+01:00</time>
      </trkpt>
      <trkpt lat="48.03461" lon="-4.06132">
        <ele>60</ele>
        <time>2020-12-27T23:31:46+01:00</time>
      </trkpt>
      <trkpt lat="48.03457" lon="-4.06186">
        <ele>61</ele>
        <time>2020-12-27T23:31:46+01:00</time>
      </trkpt>
      <trkpt lat="48.03435" lon="-4.06235">
        <ele>61</ele>
        <time>2020-12-27T23:31:46+01:00</time>
      </trkpt>
      <trkpt lat="48.03396" lon="-4.06268">
        <ele>64</ele>
        <time>2020-12-27T23:31:46+01:00</time>
      </trkpt>
      <trkpt lat="48.03355" lon="-4.06266">
        <ele>66</ele>
        <time>2020-12-27T23:31:46+01:00</time>
      </trkpt>
      <trkpt lat="48.03325" lon="-4.06194">
        <ele>61</ele>
        <time>2020-12-27T23:31:46+01:00</time>
      </trkpt>
      <trkpt lat="48.03273" lon="-4.06091">
        <ele>57</ele>
        <time>2020-12-27T23:31:46+01:00</time>
      </trkpt>
      <trkpt lat="48.03227" lon="-4.06019">
        <ele>62</ele>
        <time>2020-12-27T23:31:46+01:00</time>
      </trkpt>
      <trkpt lat="48.03202" lon="-4.05981">
        <ele>65</ele>
        <time>2020-12-27T23:31:46+01:00</time>
      </trkpt>
      <trkpt lat="48.03177" lon="-4.05938">
        <ele>64</ele>
        <time>2020-12-27T23:31:46+01:00</time>
      </trkpt>
      <trkpt lat="48.03156" lon="-4.05884">
        <ele>64</ele>
        <time>2020-12-27T23:31:46+01:00</time>
      </trkpt>
      <trkpt lat="48.03135" lon="-4.05854">
        <ele>66</ele>
        <time>2020-12-27T23:31:46+01:00</time>
      </trkpt>
      <trkpt lat="48.03116" lon="-4.05815">
        <ele>65</ele>
        <time>2020-12-27T23:31:46+01:00</time>
      </trkpt>
      <trkpt lat="48.03099" lon="-4.05755">
        <ele>62</ele>
        <time>2020-12-27T23:31:46+01:00</time>
      </trkpt>
      <trkpt lat="48.03086" lon="-4.05711">
        <ele>62</ele>
        <time>2020-12-27T23:31:46+01:00</time>
      </trkpt>
      <trkpt lat="48.03081" lon="-4.05689">
        <ele>64</ele>
        <time>2020-12-27T23:31:46+01:00</time>
      </trkpt>
      <trkpt lat="48.03062" lon="-4.05625">
        <ele>69</ele>
        <time>2020-12-27T23:31:46+01:00</time>
      </trkpt>
      <trkpt lat="48.03045" lon="-4.05577">
        <ele>69</ele>
        <time>2020-12-27T23:31:46+01:00</time>
      </trkpt>
      <trkpt lat="48.03016" lon="-4.05535">
        <ele>69</ele>
        <time>2020-12-27T23:31:46+01:00</time>
      </trkpt>
      <trkpt lat="48.02986" lon="-4.05495">
        <ele>70</ele>
        <time>2020-12-27T23:31:46+01:00</time>
      </trkpt>
      <trkpt lat="48.02939" lon="-4.05483">
        <ele>68</ele>
        <time>2020-12-27T23:31:46+01:00</time>
      </trkpt>
      <trkpt lat="48.02897" lon="-4.05482">
        <ele>64</ele>
        <time>2020-12-27T23:31:46+01:00</time>
      </trkpt>
      <trkpt lat="48.02873" lon="-4.05481">
        <ele>63</ele>
        <time>2020-12-27T23:31:46+01:00</time>
      </trkpt>
      <trkpt lat="48.02821" lon="-4.0547">
        <ele>62</ele>
        <time>2020-12-27T23:31:46+01:00</time>
      </trkpt>
      <trkpt lat="48.02793" lon="-4.05461">
        <ele>62</ele>
        <time>2020-12-27T23:31:46+01:00</time>
      </trkpt>
      <trkpt lat="48.02754" lon="-4.05462">
        <ele>58</ele>
        <time>2020-12-27T23:31:46+01:00</time>
      </trkpt>
      <trkpt lat="48.02738" lon="-4.05446">
        <ele>59</ele>
        <time>2020-12-27T23:31:46+01:00</time>
      </trkpt>
      <trkpt lat="48.02724" lon="-4.05453">
        <ele>58</ele>
        <time>2020-12-27T23:31:46+01:00</time>
      </trkpt>
      <trkpt lat="48.02731" lon="-4.05487">
        <ele>56</ele>
        <time>2020-12-27T23:31:46+01:00</time>
      </trkpt>
      <trkpt lat="48.02756" lon="-4.05496">
        <ele>56</ele>
        <time>2020-12-27T23:31:46+01:00</time>
      </trkpt>
      <trkpt lat="48.0279" lon="-4.05512">
        <ele>58</ele>
        <time>2020-12-27T23:31:46+01:00</time>
      </trkpt>
      <trkpt lat="48.0281" lon="-4.05511">
        <ele>59</ele>
        <time>2020-12-27T23:31:46+01:00</time>
      </trkpt>
      <trkpt lat="48.02833" lon="-4.05504">
        <ele>58</ele>
        <time>2020-12-27T23:31:46+01:00</time>
      </trkpt>
      <trkpt lat="48.02865" lon="-4.05505">
        <ele>59</ele>
        <time>2020-12-27T23:31:46+01:00</time>
      </trkpt>
      <trkpt lat="48.02898" lon="-4.05519">
        <ele>60</ele>
        <time>2020-12-27T23:31:46+01:00</time>
      </trkpt>
      <trkpt lat="48.02932" lon="-4.05525">
        <ele>61</ele>
        <time>2020-12-27T23:31:46+01:00</time>
      </trkpt>
      <trkpt lat="48.02966" lon="-4.05539">
        <ele>63</ele>
        <time>2020-12-27T23:31:46+01:00</time>
      </trkpt>
      <trkpt lat="48.03" lon="-4.05572">
        <ele>60</ele>
        <time>2020-12-27T23:31:46+01:00</time>
      </trkpt>
      <trkpt lat="48.03028" lon="-4.05626">
        <ele>65</ele>
        <time>2020-12-27T23:31:46+01:00</time>
      </trkpt>
      <trkpt lat="48.03057" lon="-4.05679">
        <ele>65</ele>
        <time>2020-12-27T23:31:46+01:00</time>
      </trkpt>
      <trkpt lat="48.03084" lon="-4.05765">
        <ele>60</ele>
        <time>2020-12-27T23:31:46+01:00</time>
      </trkpt>
      <trkpt lat="48.03104" lon="-4.05834">
        <ele>66</ele>
        <time>2020-12-27T23:31:46+01:00</time>
      </trkpt>
      <trkpt lat="48.03123" lon="-4.05886">
        <ele>69</ele>
        <time>2020-12-27T23:31:46+01:00</time>
      </trkpt>
      <trkpt lat="48.03149" lon="-4.05933">
        <ele>68</ele>
        <time>2020-12-27T23:31:46+01:00</time>
      </trkpt>
      <trkpt lat="48.03169" lon="-4.05974">
        <ele>68</ele>
        <time>2020-12-27T23:31:46+01:00</time>
      </trkpt>
      <trkpt lat="48.03181" lon="-4.06008">
        <ele>70</ele>
        <time>2020-12-27T23:31:46+01:00</time>
      </trkpt>
      <trkpt lat="48.03198" lon="-4.06029">
        <ele>69</ele>
        <time>2020-12-27T23:31:46+01:00</time>
      </trkpt>
      <trkpt lat="48.03207" lon="-4.06038">
        <ele>68</ele>
        <time>2020-12-27T23:31:46+01:00</time>
      </trkpt>
      <trkpt lat="48.03233" lon="-4.06057">
        <ele>62</ele>
        <time>2020-12-27T23:31:46+01:00</time>
      </trkpt>
      <trkpt lat="48.03256" lon="-4.06097">
        <ele>58</ele>
        <time>2020-12-27T23:31:46+01:00</time>
      </trkpt>
      <trkpt lat="48.03276" lon="-4.06139">
        <ele>61</ele>
        <time>2020-12-27T23:31:46+01:00</time>
      </trkpt>
      <trkpt lat="48.03298" lon="-4.06176">
        <ele>62</ele>
        <time>2020-12-27T23:31:46+01:00</time>
      </trkpt>
      <trkpt lat="48.03313" lon="-4.06217">
        <ele>64</ele>
        <time>2020-12-27T23:31:46+01:00</time>
      </trkpt>
      <trkpt lat="48.03341" lon="-4.06279">
        <ele>70</ele>
        <time>2020-12-27T23:31:46+01:00</time>
      </trkpt>
      <trkpt lat="48.03353" lon="-4.06291">
        <ele>71</ele>
        <time>2020-12-27T23:31:46+01:00</time>
      </trkpt>
      <trkpt lat="48.03382" lon="-4.06298">
        <ele>70</ele>
        <time>2020-12-27T23:31:46+01:00</time>
      </trkpt>
      <trkpt lat="48.03435" lon="-4.06275">
        <ele>66</ele>
        <time>2020-12-27T23:31:46+01:00</time>
      </trkpt>
      <trkpt lat="48.03457" lon="-4.06243">
        <ele>65</ele>
        <time>2020-12-27T23:31:46+01:00</time>
      </trkpt>
      <trkpt lat="48.03469" lon="-4.06215">
        <ele>65</ele>
        <time>2020-12-27T23:31:46+01:00</time>
      </trkpt>
      <trkpt lat="48.03476" lon="-4.06171">
        <ele>62</ele>
        <time>2020-12-27T23:31:46+01:00</time>
      </trkpt>
      <trkpt lat="48.03476" lon="-4.06137">
        <ele>62</ele>
        <time>2020-12-27T23:31:46+01:00</time>
      </trkpt>
      <trkpt lat="48.03467" lon="-4.06088">
        <ele>60</ele>
        <time>2020-12-27T23:31:46+01:00</time>
      </trkpt>
      <trkpt lat="48.03463" lon="-4.06056">
        <ele>60</ele>
        <time>2020-12-27T23:31:46+01:00</time>
      </trkpt>
      <trkpt lat="48.03459" lon="-4.06003">
        <ele>60</ele>
        <time>2020-12-27T23:31:46+01:00</time>
      </trkpt>
      <trkpt lat="48.03466" lon="-4.05962">
        <ele>61</ele>
        <time>2020-12-27T23:31:46+01:00</time>
      </trkpt>
      <trkpt lat="48.0347" lon="-4.05904">
        <ele>60</ele>
        <time>2020-12-27T23:31:46+01:00</time>
      </trkpt>
      <trkpt lat="48.03471" lon="-4.05859">
        <ele>59</ele>
        <time>2020-12-27T23:31:46+01:00</time>
      </trkpt>
      <trkpt lat="48.03484" lon="-4.05848">
        <ele>59</ele>
        <time>2020-12-27T23:31:46+01:00</time>
      </trkpt>
      <trkpt lat="48.03506" lon="-4.05843">
        <ele>60</ele>
        <time>2020-12-27T23:31:46+01:00</time>
      </trkpt>
      <trkpt lat="48.03528" lon="-4.05843">
        <ele>62</ele>
        <time>2020-12-27T23:31:46+01:00</time>
      </trkpt>
      <trkpt lat="48.03553" lon="-4.05857">
        <ele>65</ele>
        <time>2020-12-27T23:31:46+01:00</time>
      </trkpt>
      <trkpt lat="48.0357" lon="-4.05911">
        <ele>71</ele>
        <time>2020-12-27T23:31:46+01:00</time>
      </trkpt>
      <trkpt lat="48.03587" lon="-4.05949">
        <ele>75</ele>
        <time>2020-12-27T23:31:46+01:00</time>
      </trkpt>
      <trkpt lat="48.03607" lon="-4.05998">
        <ele>78</ele>
        <time>2020-12-27T23:31:46+01:00</time>
      </trkpt>
      <trkpt lat="48.03625" lon="-4.06047">
        <ele>81</ele>
        <time>2020-12-27T23:31:46+01:00</time>
      </trkpt>
      <trkpt lat="48.03619" lon="-4.06053">
        <ele>81</ele>
        <time>2020-12-27T23:31:46+01:00</time>
      </trkpt>
      <trkpt lat="48.03603" lon="-4.06042">
        <ele>80</ele>
        <time>2020-12-27T23:31:46+01:00</time>
      </trkpt>
      <trkpt lat="48.03579" lon="-4.06014">
        <ele>78</ele>
        <time>2020-12-27T23:31:46+01:00</time>
      </trkpt>
      <trkpt lat="48.03558" lon="-4.06013">
        <ele>74</ele>
        <time>2020-12-27T23:31:46+01:00</time>
      </trkpt>
      <trkpt lat="48.03544" lon="-4.06023">
        <ele>72</ele>
        <time>2020-12-27T23:31:46+01:00</time>
      </trkpt>
      <trkpt lat="48.03535" lon="-4.06059">
        <ele>71</ele>
        <time>2020-12-27T23:31:46+01:00</time>
      </trkpt>
      <trkpt lat="48.03538" lon="-4.06074">
        <ele>72</ele>
        <time>2020-12-27T23:31:46+01:00</time>
      </trkpt>
      <trkpt lat="48.03539" lon="-4.06085">
        <ele>72</ele>
        <time>2020-12-27T23:31:46+01:00</time>
      </trkpt>
      <trkpt lat="48.03537" lon="-4.06106">
        <ele>72</ele>
        <time>2020-12-27T23:31:46+01:00</time>
      </trkpt>
      <trkpt lat="48.03539" lon="-4.06124">
        <ele>73</ele>
        <time>2020-12-27T23:31:46+01:00</time>
      </trkpt>
      <trkpt lat="48.03544" lon="-4.06144">
        <ele>75</ele>
        <time>2020-12-27T23:31:46+01:00</time>
      </trkpt>
      <trkpt lat="48.03548" lon="-4.06169">
        <ele>76</ele>
        <time>2020-12-27T23:31:46+01:00</time>
      </trkpt>
      <trkpt lat="48.03547" lon="-4.06193">
        <ele>77</ele>
        <time>2020-12-27T23:31:46+01:00</time>
      </trkpt>
      <trkpt lat="48.03549" lon="-4.06208">
        <ele>78</ele>
        <time>2020-12-27T23:31:46+01:00</time>
      </trkpt>
      <trkpt lat="48.03551" lon="-4.06221">
        <ele>78</ele>
        <time>2020-12-27T23:31:46+01:00</time>
      </trkpt>
      <trkpt lat="48.03552" lon="-4.0624">
        <ele>79</ele>
        <time>2020-12-27T23:31:46+01:00</time>
      </trkpt>
      <trkpt lat="48.03551" lon="-4.06268">
        <ele>81</ele>
        <time>2020-12-27T23:31:46+01:00</time>
      </trkpt>
      <trkpt lat="48.03549" lon="-4.0629">
        <ele>82</ele>
        <time>2020-12-27T23:31:46+01:00</time>
      </trkpt>
      <trkpt lat="48.03529" lon="-4.06297">
        <ele>81</ele>
        <time>2020-12-27T23:31:46+01:00</time>
      </trkpt>
      <trkpt lat="48.03515" lon="-4.0629">
        <ele>79</ele>
        <time>2020-12-27T23:31:46+01:00</time>
      </trkpt>
      <trkpt lat="48.03505" lon="-4.06294">
        <ele>78</ele>
        <time>2020-12-27T23:31:46+01:00</time>
      </trkpt>
      <trkpt lat="48.03489" lon="-4.06293">
        <ele>76</ele>
        <time>2020-12-27T23:31:46+01:00</time>
      </trkpt>
      <trkpt lat="48.03478" lon="-4.06296">
        <ele>75</ele>
        <time>2020-12-27T23:31:46+01:00</time>
      </trkpt>
      <trkpt lat="48.03456" lon="-4.06321">
        <ele>76</ele>
        <time>2020-12-27T23:31:46+01:00</time>
      </trkpt>
      <trkpt lat="48.03436" lon="-4.06345">
        <ele>78</ele>
        <time>2020-12-27T23:31:46+01:00</time>
      </trkpt>
      <trkpt lat="48.03424" lon="-4.06362">
        <ele>80</ele>
        <time>2020-12-27T23:31:46+01:00</time>
      </trkpt>
      <trkpt lat="48.03419" lon="-4.0638">
        <ele>82</ele>
        <time>2020-12-27T23:31:46+01:00</time>
      </trkpt>
      <trkpt lat="48.03407" lon="-4.06407">
        <ele>87</ele>
        <time>2020-12-27T23:31:46+01:00</time>
      </trkpt>
      <trkpt lat="48.03392" lon="-4.06422">
        <ele>89</ele>
        <time>2020-12-27T23:31:46+01:00</time>
      </trkpt>
      <trkpt lat="48.03373" lon="-4.06439">
        <ele>90</ele>
        <time>2020-12-27T23:31:46+01:00</time>
      </trkpt>
      <trkpt lat="48.03366" lon="-4.06422">
        <ele>90</ele>
        <time>2020-12-27T23:31:46+01:00</time>
      </trkpt>
      <trkpt lat="48.03353" lon="-4.06381">
        <ele>85</ele>
        <time>2020-12-27T23:31:46+01:00</time>
      </trkpt>
      <trkpt lat="48.03322" lon="-4.06343">
        <ele>83</ele>
        <time>2020-12-27T23:31:46+01:00</time>
      </trkpt>
      <trkpt lat="48.03302" lon="-4.06319">
        <ele>80</ele>
        <time>2020-12-27T23:31:46+01:00</time>
      </trkpt>
      <trkpt lat="48.03286" lon="-4.0629">
        <ele>77</ele>
        <time>2020-12-27T23:31:46+01:00</time>
      </trkpt>
      <trkpt lat="48.03269" lon="-4.06275">
        <ele>77</ele>
        <time>2020-12-27T23:31:46+01:00</time>
      </trkpt>
      <trkpt lat="48.03241" lon="-4.06243">
        <ele>78</ele>
        <time>2020-12-27T23:31:46+01:00</time>
      </trkpt>
      <trkpt lat="48.03217" lon="-4.06202">
        <ele>79</ele>
        <time>2020-12-27T23:31:46+01:00</time>
      </trkpt>
      <trkpt lat="48.03211" lon="-4.06185">
        <ele>79</ele>
        <time>2020-12-27T23:31:46+01:00</time>
      </trkpt>
      <trkpt lat="48.03133" lon="-4.0614">
        <ele>98</ele>
        <time>2020-12-27T23:31:46+01:00</time>
      </trkpt>
      <trkpt lat="48.03119" lon="-4.0614">
        <ele>103</ele>
        <time>2020-12-27T23:31:46+01:00</time>
      </trkpt>
      <trkpt lat="48.03106" lon="-4.06117">
        <ele>106</ele>
        <time>2020-12-27T23:31:46+01:00</time>
      </trkpt>
      <trkpt lat="48.0303" lon="-4.05972">
        <ele>111</ele>
        <time>2020-12-27T23:31:46+01:00</time>
      </trkpt>
      <trkpt lat="48.03001" lon="-4.05917">
        <ele>116</ele>
        <time>2020-12-27T23:31:46+01:00</time>
      </trkpt>
      <trkpt lat="48.02972" lon="-4.05876">
        <ele>112</ele>
        <time>2020-12-27T23:31:46+01:00</time>
      </trkpt>
      <trkpt lat="48.02955" lon="-4.0585">
        <ele>112</ele>
        <time>2020-12-27T23:31:46+01:00</time>
      </trkpt>
      <trkpt lat="48.02955" lon="-4.05809">
        <ele>105</ele>
        <time>2020-12-27T23:31:46+01:00</time>
      </trkpt>
      <trkpt lat="48.02941" lon="-4.05824">
        <ele>111</ele>
        <time>2020-12-27T23:31:46+01:00</time>
      </trkpt>
      <trkpt lat="48.02933" lon="-4.05838">
        <ele>115</ele>
        <time>2020-12-27T23:31:46+01:00</time>
      </trkpt>
      <trkpt lat="48.02909" lon="-4.05862">
        <ele>119</ele>
        <time>2020-12-27T23:31:46+01:00</time>
      </trkpt>
      <trkpt lat="48.02882" lon="-4.05896">
        <ele>119</ele>
        <time>2020-12-27T23:31:46+01:00</time>
      </trkpt>
      <trkpt lat="48.02858" lon="-4.05837">
        <ele>115</ele>
        <time>2020-12-27T23:31:46+01:00</time>
      </trkpt>
      <trkpt lat="48.0284" lon="-4.05792">
        <ele>112</ele>
        <time>2020-12-27T23:31:46+01:00</time>
      </trkpt>
      <trkpt lat="48.02808" lon="-4.05772">
        <ele>107</ele>
        <time>2020-12-27T23:31:46+01:00</time>
      </trkpt>
      <trkpt lat="48.02795" lon="-4.05827">
        <ele>110</ele>
        <time>2020-12-27T23:31:46+01:00</time>
      </trkpt>
      <trkpt lat="48.02767" lon="-4.05887">
        <ele>111</ele>
        <time>2020-12-27T23:31:46+01:00</time>
      </trkpt>
      <trkpt lat="48.02756" lon="-4.05889">
        <ele>111</ele>
        <time>2020-12-27T23:31:46+01:00</time>
      </trkpt>
      <trkpt lat="48.02733" lon="-4.05883">
        <ele>105</ele>
        <time>2020-12-27T23:31:46+01:00</time>
      </trkpt>
      <trkpt lat="48.02705" lon="-4.05889">
        <ele>99</ele>
        <time>2020-12-27T23:31:46+01:00</time>
      </trkpt>
      <trkpt lat="48.02695" lon="-4.05896">
        <ele>98</ele>
        <time>2020-12-27T23:31:46+01:00</time>
      </trkpt>
      <trkpt lat="48.02685" lon="-4.05878">
        <ele>92</ele>
        <time>2020-12-27T23:31:46+01:00</time>
      </trkpt>
      <trkpt lat="48.02705" lon="-4.05909">
        <ele>102</ele>
        <time>2020-12-27T23:31:46+01:00</time>
      </trkpt>
      <trkpt lat="48.02715" lon="-4.05926">
        <ele>106</ele>
        <time>2020-12-27T23:31:46+01:00</time>
      </trkpt>
      <trkpt lat="48.02726" lon="-4.0593">
        <ele>108</ele>
        <time>2020-12-27T23:31:46+01:00</time>
      </trkpt>
      <trkpt lat="48.02695" lon="-4.05985">
        <ele>109</ele>
        <time>2020-12-27T23:31:46+01:00</time>
      </trkpt>
      <trkpt lat="48.02674" lon="-4.0603">
        <ele>110</ele>
        <time>2020-12-27T23:31:46+01:00</time>
      </trkpt>
      <trkpt lat="48.02644" lon="-4.06045">
        <ele>106</ele>
        <time>2020-12-27T23:31:46+01:00</time>
      </trkpt>
      <trkpt lat="48.02578" lon="-4.06065">
        <ele>96</ele>
        <time>2020-12-27T23:31:46+01:00</time>
      </trkpt>
      <trkpt lat="48.02502" lon="-4.06148">
        <ele>83</ele>
        <time>2020-12-27T23:31:46+01:00</time>
      </trkpt>
      <trkpt lat="48.02452" lon="-4.06219">
        <ele>80</ele>
        <time>2020-12-27T23:31:46+01:00</time>
      </trkpt>
      <trkpt lat="48.02425" lon="-4.06247">
        <ele>81</ele>
        <time>2020-12-27T23:31:46+01:00</time>
      </trkpt>
      <trkpt lat="48.02384" lon="-4.06291">
        <ele>78</ele>
        <time>2020-12-27T23:31:46+01:00</time>
      </trkpt>
      <trkpt lat="48.02359" lon="-4.06332">
        <ele>80</ele>
        <time>2020-12-27T23:31:46+01:00</time>
      </trkpt>
      <trkpt lat="48.02243" lon="-4.06434">
        <ele>88</ele>
        <time>2020-12-27T23:31:46+01:00</time>
      </trkpt>
      <trkpt lat="48.02205" lon="-4.06457">
        <ele>92</ele>
        <time>2020-12-27T23:31:46+01:00</time>
      </trkpt>
      <trkpt lat="48.02165" lon="-4.0645">
        <ele>88</ele>
        <time>2020-12-27T23:31:46+01:00</time>
      </trkpt>
      <trkpt lat="48.02096" lon="-4.06425">
        <ele>90</ele>
        <time>2020-12-27T23:31:46+01:00</time>
      </trkpt>
      <trkpt lat="48.02076" lon="-4.06391">
        <ele>85</ele>
        <time>2020-12-27T23:31:46+01:00</time>
      </trkpt>
      <trkpt lat="48.02038" lon="-4.06312">
        <ele>76</ele>
        <time>2020-12-27T23:31:46+01:00</time>
      </trkpt>
      <trkpt lat="48.01997" lon="-4.06235">
        <ele>78</ele>
        <time>2020-12-27T23:31:46+01:00</time>
      </trkpt>
      <trkpt lat="48.01968" lon="-4.06182">
        <ele>73</ele>
        <time>2020-12-27T23:31:46+01:00</time>
      </trkpt>
      <trkpt lat="48.01945" lon="-4.06165">
        <ele>73</ele>
        <time>2020-12-27T23:31:46+01:00</time>
      </trkpt>
      <trkpt lat="48.0191" lon="-4.06175">
        <ele>79</ele>
        <time>2020-12-27T23:31:46+01:00</time>
      </trkpt>
      <trkpt lat="48.01854" lon="-4.062">
        <ele>77</ele>
        <time>2020-12-27T23:31:46+01:00</time>
      </trkpt>
      <trkpt lat="48.01802" lon="-4.06227">
        <ele>79</ele>
        <time>2020-12-27T23:31:46+01:00</time>
      </trkpt>
      <trkpt lat="48.01715" lon="-4.06247">
        <ele>74</ele>
        <time>2020-12-27T23:31:46+01:00</time>
      </trkpt>
      <trkpt lat="48.01689" lon="-4.06261">
        <ele>72</ele>
        <time>2020-12-27T23:31:46+01:00</time>
      </trkpt>
      <trkpt lat="48.01637" lon="-4.06319">
        <ele>71</ele>
        <time>2020-12-27T23:31:46+01:00</time>
      </trkpt>
      <trkpt lat="48.01599" lon="-4.06376">
        <ele>69</ele>
        <time>2020-12-27T23:31:46+01:00</time>
      </trkpt>
      <trkpt lat="48.01554" lon="-4.06478">
        <ele>69</ele>
        <time>2020-12-27T23:31:46+01:00</time>
      </trkpt>
      <trkpt lat="48.01535" lon="-4.06551">
        <ele>69</ele>
        <time>2020-12-27T23:31:46+01:00</time>
      </trkpt>
      <trkpt lat="48.01524" lon="-4.06642">
        <ele>66</ele>
        <time>2020-12-27T23:31:46+01:00</time>
      </trkpt>
      <trkpt lat="48.01519" lon="-4.06714">
        <ele>62</ele>
        <time>2020-12-27T23:31:46+01:00</time>
      </trkpt>
      <trkpt lat="48.01516" lon="-4.06738">
        <ele>60</ele>
        <time>2020-12-27T23:31:46+01:00</time>
      </trkpt>
      <trkpt lat="48.0152" lon="-4.06811">
        <ele>55</ele>
        <time>2020-12-27T23:31:46+01:00</time>
      </trkpt>
      <trkpt lat="48.01524" lon="-4.06859">
        <ele>52</ele>
        <time>2020-12-27T23:31:46+01:00</time>
      </trkpt>
      <trkpt lat="48.01522" lon="-4.06871">
        <ele>51</ele>
        <time>2020-12-27T23:31:46+01:00</time>
      </trkpt>
      <trkpt lat="48.01513" lon="-4.06874">
        <ele>49</ele>
        <time>2020-12-27T23:31:46+01:00</time>
      </trkpt>
    </trkseg>
  </trk>
</gpx>